Location: Janeiro
(34.9957°N, 76.7652°W)
Time: 06:07:07
(UTC+00:00)

SL-16 R/B - Pass Details

Date: 14 December 2019
Orbit: 840 x 849 km, 71.0° (Epoch: 23 January)

Event Time Altitude Azimuth Distance (km) Brightness Sun altitude
Rises 23:09:48 0° 227° (SW) 3,392 6.6 -14.6°
Reaches altitude 10° 23:12:31 10° 238° (WSW) 2,462 5.9 -15.2°
Maximum altitude 23:17:28 31° 299° (WNW) 1,460 3.9 -16.1°
Drops below altitude 10° 23:22:27 10° 0° (N) 2,478 4.5 -17.1°
Enters shadow 23:25:03 - 11° (N) 3,361 5.1 -17.6°
